Year,Month,Day,Hour,Minute,Value (Times are PST for windspeed in km/hr)
2021,08,07,00,00,0.10
2021,08,07,00,01,0.00
2021,08,07,00,02,1.50
2021,08,07,00,03,0.30
2021,08,07,00,04,1.10
2021,08,07,00,05,2.50
2021,08,07,00,06,1.50
2021,08,07,00,07,2.30
2021,08,07,00,08,3.00
2021,08,07,00,09,0.00
2021,08,07,00,10,1.60
2021,08,07,00,11,0.30
2021,08,07,00,12,0.80
2021,08,07,00,13,0.00
2021,08,07,00,14,0.30
2021,08,07,00,15,0.00
2021,08,07,00,16,0.00
2021,08,07,00,17,0.40
2021,08,07,00,18,0.00
2021,08,07,00,19,0.10
2021,08,07,00,20,0.30
2021,08,07,00,21,0.90
2021,08,07,00,22,0.80
2021,08,07,00,23,0.40
2021,08,07,00,24,0.10
2021,08,07,00,25,1.40
2021,08,07,00,26,0.30
2021,08,07,00,27,1.50
2021,08,07,00,28,1.90
2021,08,07,00,29,0.40
2021,08,07,00,30,2.40
2021,08,07,00,31,0.30
2021,08,07,00,32,0.80
2021,08,07,00,33,0.20
2021,08,07,00,34,0.20
2021,08,07,00,35,0.00
2021,08,07,00,36,0.00
2021,08,07,00,37,0.00
2021,08,07,00,38,0.60
2021,08,07,00,39,0.00
2021,08,07,00,40,0.00
2021,08,07,00,41,0.00
2021,08,07,00,42,0.00
2021,08,07,00,43,0.00
2021,08,07,00,44,0.00
2021,08,07,00,45,0.00
2021,08,07,00,46,0.00
2021,08,07,00,47,0.00
2021,08,07,00,48,0.10
2021,08,07,00,49,1.40
2021,08,07,00,50,4.70
2021,08,07,00,51,0.50
2021,08,07,00,52,0.30
2021,08,07,00,53,0.10
2021,08,07,00,54,0.70
2021,08,07,00,55,0.00
2021,08,07,00,56,0.60
2021,08,07,00,57,0.10
2021,08,07,00,58,1.20
2021,08,07,00,59,0.10
2021,08,07,01,00,0.00
2021,08,07,01,01,0.00
2021,08,07,01,02,0.00
2021,08,07,01,03,0.00
2021,08,07,01,04,0.20
2021,08,07,01,05,0.00
2021,08,07,01,06,0.00
2021,08,07,01,07,0.00
2021,08,07,01,08,0.00
2021,08,07,01,09,0.00
2021,08,07,01,10,0.00
2021,08,07,01,11,0.00
2021,08,07,01,12,0.00
2021,08,07,01,13,0.00
2021,08,07,01,14,0.00
2021,08,07,01,15,0.00
2021,08,07,01,16,0.00
2021,08,07,01,17,0.00
2021,08,07,01,18,0.00
2021,08,07,01,19,0.00
2021,08,07,01,20,0.00
2021,08,07,01,21,0.00
2021,08,07,01,22,0.00
2021,08,07,01,23,0.00
2021,08,07,01,24,0.00
2021,08,07,01,25,0.00
2021,08,07,01,26,0.00
2021,08,07,01,27,0.00
2021,08,07,01,28,0.20
2021,08,07,01,29,0.00
2021,08,07,01,30,0.00
2021,08,07,01,31,0.00
2021,08,07,01,32,0.00
2021,08,07,01,33,0.00
2021,08,07,01,34,0.00
2021,08,07,01,35,0.00
2021,08,07,01,36,0.00
2021,08,07,01,37,0.00
2021,08,07,01,38,0.00
2021,08,07,01,39,0.00
2021,08,07,01,40,0.00
2021,08,07,01,41,0.00
2021,08,07,01,42,0.10
2021,08,07,01,43,0.00
2021,08,07,01,44,0.00
2021,08,07,01,45,0.00
2021,08,07,01,46,0.00
2021,08,07,01,47,0.00
2021,08,07,01,48,0.00
2021,08,07,01,49,0.10
2021,08,07,01,50,0.10
2021,08,07,01,51,0.00
2021,08,07,01,52,0.00
2021,08,07,01,53,0.00
2021,08,07,01,54,0.20
2021,08,07,01,55,0.10
2021,08,07,01,56,0.00
2021,08,07,01,57,0.10
2021,08,07,01,58,1.30
2021,08,07,01,59,0.00
2021,08,07,02,00,0.00
2021,08,07,02,01,0.00
2021,08,07,02,02,0.10
2021,08,07,02,03,0.00
2021,08,07,02,04,0.10
2021,08,07,02,05,0.00
2021,08,07,02,06,0.00
2021,08,07,02,07,0.00
2021,08,07,02,08,0.00
2021,08,07,02,09,0.00
2021,08,07,02,10,0.00
2021,08,07,02,11,0.00
2021,08,07,02,12,0.00
2021,08,07,02,13,0.00
2021,08,07,02,14,0.00
2021,08,07,02,15,0.00
2021,08,07,02,16,0.20
2021,08,07,02,17,0.20
2021,08,07,02,18,0.00
2021,08,07,02,19,0.10
2021,08,07,02,20,0.20
2021,08,07,02,21,0.00
2021,08,07,02,22,0.00
2021,08,07,02,23,0.00
2021,08,07,02,24,0.00
2021,08,07,02,25,0.00
2021,08,07,02,26,0.00
2021,08,07,02,27,0.00
2021,08,07,02,28,0.00
2021,08,07,02,29,0.00
2021,08,07,02,30,0.00
2021,08,07,02,31,0.00
2021,08,07,02,32,0.00
2021,08,07,02,33,0.00
2021,08,07,02,34,0.00
2021,08,07,02,35,0.00
2021,08,07,02,36,0.00
2021,08,07,02,37,0.00
2021,08,07,02,38,0.00
2021,08,07,02,39,0.00
2021,08,07,02,40,0.00
2021,08,07,02,41,0.00
2021,08,07,02,42,0.00
2021,08,07,02,43,0.10
2021,08,07,02,44,0.00
2021,08,07,02,45,0.00
2021,08,07,02,46,0.00
2021,08,07,02,47,0.00
2021,08,07,02,48,0.00
2021,08,07,02,49,0.00
2021,08,07,02,50,0.00
2021,08,07,02,51,0.00
2021,08,07,02,52,0.00
2021,08,07,02,53,0.00
2021,08,07,02,54,0.00
2021,08,07,02,55,0.00
2021,08,07,02,56,0.00
2021,08,07,02,57,0.00
2021,08,07,02,58,0.00
2021,08,07,02,59,0.00
2021,08,07,03,00,0.10
2021,08,07,03,01,0.00
2021,08,07,03,02,0.00
2021,08,07,03,03,0.00
2021,08,07,03,04,0.00
2021,08,07,03,05,0.00
2021,08,07,03,06,0.00
2021,08,07,03,07,0.00
2021,08,07,03,08,0.00
2021,08,07,03,09,0.00
2021,08,07,03,10,0.00
2021,08,07,03,11,0.00
2021,08,07,03,12,0.00
2021,08,07,03,13,0.00
2021,08,07,03,14,0.00
2021,08,07,03,15,0.00
2021,08,07,03,16,0.10
2021,08,07,03,17,0.10
2021,08,07,03,18,2.40
2021,08,07,03,19,0.00
2021,08,07,03,20,0.00
2021,08,07,03,21,0.10
2021,08,07,03,22,0.10
2021,08,07,03,23,0.00
2021,08,07,03,24,0.00
2021,08,07,03,25,0.60
2021,08,07,03,26,0.90
2021,08,07,03,27,0.00
2021,08,07,03,28,0.00
2021,08,07,03,29,0.00
2021,08,07,03,30,0.00
2021,08,07,03,31,0.00
2021,08,07,03,32,0.00
2021,08,07,03,33,0.00
2021,08,07,03,34,0.00
2021,08,07,03,35,0.00
2021,08,07,03,36,0.00
2021,08,07,03,37,0.00
2021,08,07,03,38,0.00
2021,08,07,03,39,0.10
2021,08,07,03,40,0.10
2021,08,07,03,41,0.40
2021,08,07,03,42,0.00
2021,08,07,03,43,0.00
2021,08,07,03,44,0.10
2021,08,07,03,45,0.00
2021,08,07,03,46,0.00
2021,08,07,03,47,0.00
2021,08,07,03,48,0.00
2021,08,07,03,49,0.00
2021,08,07,03,50,0.00
2021,08,07,03,51,0.00
2021,08,07,03,52,0.00
2021,08,07,03,53,0.00
2021,08,07,03,54,0.00
2021,08,07,03,55,0.00
2021,08,07,03,56,0.00
2021,08,07,03,57,0.00
2021,08,07,03,58,0.00
2021,08,07,03,59,0.00
2021,08,07,04,00,0.00
2021,08,07,04,01,0.00
2021,08,07,04,02,0.00
2021,08,07,04,03,0.00
2021,08,07,04,04,0.00
2021,08,07,04,05,0.00
2021,08,07,04,06,0.00
2021,08,07,04,07,0.10
2021,08,07,04,08,0.00
2021,08,07,04,09,0.00
2021,08,07,04,10,0.00
2021,08,07,04,11,0.00
2021,08,07,04,12,0.00
2021,08,07,04,13,0.00
2021,08,07,04,14,0.00
2021,08,07,04,15,0.00
2021,08,07,04,16,0.00
2021,08,07,04,17,0.00
2021,08,07,04,18,0.00
2021,08,07,04,19,0.00
2021,08,07,04,20,0.00
2021,08,07,04,21,0.00
2021,08,07,04,22,0.00
2021,08,07,04,23,0.00
2021,08,07,04,24,0.00
2021,08,07,04,25,0.00
2021,08,07,04,26,0.00
2021,08,07,04,27,0.00
2021,08,07,04,28,0.00
2021,08,07,04,29,0.00
2021,08,07,04,30,0.00
2021,08,07,04,31,0.00
2021,08,07,04,32,0.00
2021,08,07,04,33,0.00
2021,08,07,04,34,0.00
2021,08,07,04,35,0.00
2021,08,07,04,36,0.00
2021,08,07,04,37,0.00
2021,08,07,04,38,0.00
2021,08,07,04,39,0.00
2021,08,07,04,40,0.00
2021,08,07,04,41,0.00
2021,08,07,04,42,0.00
2021,08,07,04,43,0.00
2021,08,07,04,44,0.00
2021,08,07,04,45,0.00
2021,08,07,04,46,0.10
2021,08,07,04,47,0.00
2021,08,07,04,48,0.00
2021,08,07,04,49,0.00
2021,08,07,04,50,0.00
2021,08,07,04,51,0.00
2021,08,07,04,52,0.00
2021,08,07,04,53,0.00
2021,08,07,04,54,0.00
2021,08,07,04,55,0.00
2021,08,07,04,56,0.00
2021,08,07,04,57,0.00
2021,08,07,04,58,0.00
2021,08,07,04,59,0.10
2021,08,07,05,00,0.00
2021,08,07,05,01,0.00
2021,08,07,05,02,0.00
2021,08,07,05,03,0.00
2021,08,07,05,04,0.00
2021,08,07,05,05,0.00
2021,08,07,05,06,0.00
2021,08,07,05,07,0.00
2021,08,07,05,08,0.00
2021,08,07,05,09,0.00
2021,08,07,05,10,0.00
2021,08,07,05,11,0.10
2021,08,07,05,12,0.10
2021,08,07,05,13,0.00
2021,08,07,05,14,0.00
2021,08,07,05,15,0.00
2021,08,07,05,16,0.00
2021,08,07,05,17,0.00
2021,08,07,05,18,0.00
2021,08,07,05,19,0.00
2021,08,07,05,20,0.00
2021,08,07,05,21,0.00
2021,08,07,05,22,0.00
2021,08,07,05,23,0.00
2021,08,07,05,24,0.00
2021,08,07,05,25,0.00
2021,08,07,05,26,0.00
2021,08,07,05,27,0.00
2021,08,07,05,28,0.00
2021,08,07,05,29,0.00
2021,08,07,05,30,1.00
2021,08,07,05,31,0.20
2021,08,07,05,32,0.00
2021,08,07,05,33,0.00
2021,08,07,05,34,0.00
2021,08,07,05,35,0.10
2021,08,07,05,36,0.00
2021,08,07,05,37,0.00
2021,08,07,05,38,0.00
2021,08,07,05,39,0.00
2021,08,07,05,40,0.00
2021,08,07,05,41,0.00
2021,08,07,05,42,0.10
2021,08,07,05,43,0.00
2021,08,07,05,44,0.00
2021,08,07,05,45,0.00
2021,08,07,05,46,0.00
2021,08,07,05,47,0.00
2021,08,07,05,48,0.00
2021,08,07,05,49,0.00
2021,08,07,05,50,0.60
2021,08,07,05,51,0.00
2021,08,07,05,52,0.00
2021,08,07,05,53,0.20
2021,08,07,05,54,0.10
2021,08,07,05,55,0.00
2021,08,07,05,56,0.30
2021,08,07,05,57,1.00
2021,08,07,05,58,0.00
2021,08,07,05,59,0.00
2021,08,07,06,00,0.00
2021,08,07,06,01,0.00
2021,08,07,06,02,0.00
2021,08,07,06,03,0.00
2021,08,07,06,04,0.00
2021,08,07,06,05,0.00
2021,08,07,06,06,0.00
2021,08,07,06,07,0.00
2021,08,07,06,08,0.00
2021,08,07,06,09,0.30
2021,08,07,06,10,1.00
2021,08,07,06,11,0.00
2021,08,07,06,12,0.00
2021,08,07,06,13,0.00
2021,08,07,06,14,0.00
2021,08,07,06,15,0.60
2021,08,07,06,16,3.20
2021,08,07,06,17,2.40
2021,08,07,06,18,1.00
2021,08,07,06,19,0.30
2021,08,07,06,20,0.00
2021,08,07,06,21,0.10
2021,08,07,06,22,0.70
2021,08,07,06,23,0.50
2021,08,07,06,24,0.00
2021,08,07,06,25,0.20
2021,08,07,06,26,0.00
2021,08,07,06,27,0.00
2021,08,07,06,28,0.00
2021,08,07,06,29,0.00
2021,08,07,06,30,0.00
2021,08,07,06,31,0.00
2021,08,07,06,32,0.00
2021,08,07,06,33,0.00
2021,08,07,06,34,0.00
2021,08,07,06,35,0.00
2021,08,07,06,36,0.00
2021,08,07,06,37,0.00
2021,08,07,06,38,0.00
2021,08,07,06,39,0.00
2021,08,07,06,40,0.00
2021,08,07,06,41,0.00
2021,08,07,06,42,0.00
2021,08,07,06,43,0.00
2021,08,07,06,44,0.00
2021,08,07,06,45,0.00
2021,08,07,06,46,0.00
2021,08,07,06,47,0.00
2021,08,07,06,48,0.00
2021,08,07,06,49,0.00
2021,08,07,06,50,0.00
2021,08,07,06,51,0.00
2021,08,07,06,52,0.00
2021,08,07,06,53,0.00
2021,08,07,06,54,0.00
2021,08,07,11,59,1.20
2021,08,07,12,00,0.20
2021,08,07,12,01,0.00
2021,08,07,12,02,2.30
2021,08,07,12,03,1.30
2021,08,07,12,04,0.60
2021,08,07,12,05,2.70
2021,08,07,12,06,1.80
2021,08,07,12,07,1.40
2021,08,07,12,08,1.00
2021,08,07,12,09,0.60
2021,08,07,12,10,0.10
2021,08,07,12,11,0.00
2021,08,07,12,12,0.30
2021,08,07,12,13,1.30
2021,08,07,12,14,0.50
2021,08,07,12,15,0.80
2021,08,07,12,16,2.30
2021,08,07,12,17,0.30
2021,08,07,12,18,3.50
2021,08,07,12,19,1.50
2021,08,07,12,20,1.50
2021,08,07,12,21,4.10
2021,08,07,12,22,0.30
2021,08,07,12,23,0.10
2021,08,07,12,24,0.20
2021,08,07,12,25,0.10
2021,08,07,12,26,0.30
2021,08,07,12,27,1.20
2021,08,07,12,28,3.10
2021,08,07,12,29,6.20
2021,08,07,12,30,1.30
2021,08,07,12,31,0.50
2021,08,07,12,32,0.20
2021,08,07,12,33,0.20
2021,08,07,12,34,1.70
2021,08,07,12,35,3.00
2021,08,07,12,36,0.70
2021,08,07,12,37,0.10
2021,08,07,12,38,1.70
2021,08,07,12,39,0.30
2021,08,07,12,40,0.60
2021,08,07,12,41,1.50
2021,08,07,12,42,1.20
2021,08,07,12,43,1.70
2021,08,07,12,44,1.10
2021,08,07,12,45,0.30
2021,08,07,12,46,0.30
2021,08,07,12,47,1.70
2021,08,07,12,48,3.80
2021,08,07,12,49,1.50
2021,08,07,12,50,2.70
2021,08,07,12,51,0.80
2021,08,07,12,52,4.10
2021,08,07,12,53,1.50
2021,08,07,12,54,3.60
2021,08,07,12,55,1.50
2021,08,07,12,56,4.10
2021,08,07,12,57,1.30
2021,08,07,12,58,4.40
2021,08,07,12,59,0.70
2021,08,07,13,00,3.80
2021,08,07,13,01,2.50
2021,08,07,13,02,2.70
2021,08,07,13,03,2.30
2021,08,07,13,04,0.90
2021,08,07,13,05,0.10
2021,08,07,13,06,2.60
2021,08,07,13,07,2.10
2021,08,07,13,08,0.30
2021,08,07,13,09,0.20
2021,08,07,13,10,1.60
2021,08,07,13,11,1.00
2021,08,07,13,12,0.60
2021,08,07,13,13,1.00
2021,08,07,13,14,4.50
2021,08,07,13,15,1.40
2021,08,07,13,16,2.30
2021,08,07,13,17,1.90
2021,08,07,13,18,1.10
2021,08,07,13,19,0.60
2021,08,07,13,20,1.00
2021,08,07,13,21,0.50
2021,08,07,13,22,0.00
2021,08,07,13,23,0.30
2021,08,07,13,24,2.70
2021,08,07,13,25,3.00
2021,08,07,13,26,3.80
2021,08,07,13,27,2.00
2021,08,07,13,28,2.90
2021,08,07,13,29,4.30
2021,08,07,13,30,3.30
2021,08,07,13,31,1.60
2021,08,07,13,32,0.20
2021,08,07,13,33,1.50
2021,08,07,13,34,0.90
2021,08,07,13,35,1.20
2021,08,07,13,36,2.50
2021,08,07,13,37,3.20
2021,08,07,13,38,0.50
2021,08,07,13,39,2.40
2021,08,07,13,40,1.00
2021,08,07,13,41,2.40
2021,08,07,13,42,0.70
2021,08,07,13,43,1.80
2021,08,07,13,44,3.70
2021,08,07,13,45,2.30
2021,08,07,13,46,0.10
2021,08,07,13,47,0.60
2021,08,07,13,48,7.60
2021,08,07,13,49,3.00
2021,08,07,13,50,8.90
2021,08,07,13,51,11.90
2021,08,07,13,52,9.30
2021,08,07,13,53,8.60
2021,08,07,13,54,4.30
2021,08,07,13,55,3.70
2021,08,07,13,56,3.80
2021,08,07,13,57,5.30
2021,08,07,13,58,10.90
2021,08,07,13,59,10.70
2021,08,07,14,00,5.80
2021,08,07,14,01,12.00
2021,08,07,14,02,13.40
2021,08,07,14,03,14.20
2021,08,07,14,04,15.00
2021,08,07,14,05,10.30
2021,08,07,14,06,9.70
2021,08,07,14,07,14.80
2021,08,07,14,08,13.90
2021,08,07,14,09,8.10
2021,08,07,14,10,6.20
2021,08,07,14,11,3.80
2021,08,07,14,12,5.90
2021,08,07,14,13,4.70
2021,08,07,14,14,11.00
2021,08,07,14,15,3.30
2021,08,07,14,16,8.80
2021,08,07,14,17,5.40
2021,08,07,14,18,3.50
2021,08,07,14,19,6.00
2021,08,07,14,20,12.70
2021,08,07,14,21,8.60
2021,08,07,14,22,0.70
2021,08,07,14,23,3.70
2021,08,07,14,24,4.40
2021,08,07,14,25,6.00
2021,08,07,14,26,7.00
2021,08,07,14,27,10.50
2021,08,07,14,28,7.70
2021,08,07,14,29,11.30
2021,08,07,14,30,5.60
2021,08,07,14,31,11.20
2021,08,07,14,32,11.90
2021,08,07,14,33,6.20
2021,08,07,14,34,3.10
2021,08,07,14,35,12.50
2021,08,07,14,36,16.30
2021,08,07,14,37,8.90
2021,08,07,14,38,10.80
2021,08,07,14,39,13.40
2021,08,07,14,40,6.80
2021,08,07,14,41,8.70
2021,08,07,14,42,5.00
2021,08,07,14,43,10.30
2021,08,07,14,44,10.10
2021,08,07,14,45,8.10
2021,08,07,14,46,10.30
2021,08,07,14,47,5.80
2021,08,07,14,48,12.40
2021,08,07,14,49,4.10
2021,08,07,14,50,9.40
2021,08,07,14,51,6.60
2021,08,07,14,52,8.50
2021,08,07,14,53,4.20
2021,08,07,14,54,9.20
2021,08,07,14,55,10.20
2021,08,07,14,56,15.50
2021,08,07,14,57,6.10
2021,08,07,14,58,5.00
2021,08,07,14,59,7.80
2021,08,07,15,00,11.10
2021,08,07,15,01,14.70
2021,08,07,15,02,10.40
2021,08,07,15,03,9.00
2021,08,07,15,04,8.10
2021,08,07,15,05,8.80
2021,08,07,15,06,6.90
2021,08,07,15,07,9.40
2021,08,07,15,08,14.20
2021,08,07,15,09,16.50
2021,08,07,15,10,11.70
2021,08,07,15,11,10.30
2021,08,07,15,12,3.20
2021,08,07,15,13,9.70
2021,08,07,15,14,12.50
2021,08,07,15,15,10.00
2021,08,07,15,16,12.00
2021,08,07,15,17,13.00
2021,08,07,15,18,9.20
2021,08,07,15,19,7.90
2021,08,07,15,20,3.70
2021,08,07,15,21,5.40
2021,08,07,15,22,9.50
2021,08,07,15,23,15.20
2021,08,07,15,24,12.60
2021,08,07,15,25,13.70
2021,08,07,15,26,13.90
2021,08,07,15,27,9.90
2021,08,07,15,28,6.80
2021,08,07,15,29,10.30
2021,08,07,15,30,7.70
2021,08,07,15,31,8.50
2021,08,07,15,32,5.10
2021,08,07,15,33,9.50
2021,08,07,15,34,14.20
2021,08,07,15,35,14.40
2021,08,07,15,36,9.40
2021,08,07,15,37,17.50
2021,08,07,15,38,17.30
2021,08,07,15,39,16.50
2021,08,07,15,40,18.80
2021,08,07,15,41,13.20
2021,08,07,15,42,21.60
2021,08,07,15,43,15.20
2021,08,07,15,44,20.10
2021,08,07,15,45,20.50
2021,08,07,15,46,16.60
2021,08,07,15,47,11.50
2021,08,07,15,48,9.10
2021,08,07,15,49,11.20
2021,08,07,15,50,11.30
2021,08,07,15,51,10.40
2021,08,07,15,52,6.40
2021,08,07,15,53,13.80
2021,08,07,15,54,12.30
2021,08,07,15,55,9.40
2021,08,07,15,56,13.70
2021,08,07,15,57,8.80
2021,08,07,15,58,12.00
2021,08,07,15,59,12.90
2021,08,07,16,00,13.10
2021,08,07,16,01,18.70
2021,08,07,16,02,15.30
2021,08,07,16,03,18.70
2021,08,07,16,04,18.50
2021,08,07,16,05,15.80
2021,08,07,16,06,16.00
2021,08,07,16,07,15.00
2021,08,07,16,08,14.20
2021,08,07,16,09,20.30
2021,08,07,16,10,16.10
2021,08,07,16,11,16.70
2021,08,07,16,12,17.90
2021,08,07,16,13,23.20
2021,08,07,16,14,19.90
2021,08,07,16,15,21.10
2021,08,07,16,16,17.70
2021,08,07,16,17,12.50
2021,08,07,16,18,14.50
2021,08,07,16,19,22.50
2021,08,07,16,20,14.80
2021,08,07,16,21,19.00
2021,08,07,16,22,18.60
2021,08,07,16,23,8.70
2021,08,07,16,24,18.40
2021,08,07,16,25,15.20
2021,08,07,16,26,19.00
2021,08,07,16,27,14.20
2021,08,07,16,28,19.80
2021,08,07,16,29,18.10
2021,08,07,16,30,13.50
2021,08,07,16,31,24.00
2021,08,07,16,32,20.80
2021,08,07,16,33,28.70
2021,08,07,16,34,26.10
2021,08,07,16,35,19.30
2021,08,07,16,36,18.00
2021,08,07,16,37,21.90
2021,08,07,16,38,18.00
2021,08,07,16,39,20.30
2021,08,07,16,40,19.50
2021,08,07,16,41,16.80
2021,08,07,16,42,15.70
2021,08,07,16,43,19.90
2021,08,07,16,44,23.40
2021,08,07,16,45,21.60
2021,08,07,16,46,20.60
2021,08,07,16,47,23.50
2021,08,07,16,48,21.80
2021,08,07,16,49,15.60
2021,08,07,16,50,18.20
2021,08,07,16,51,17.90
2021,08,07,16,52,15.70
2021,08,07,16,53,19.00
2021,08,07,16,54,15.00
2021,08,07,16,55,15.80
2021,08,07,16,56,13.70
2021,08,07,16,57,16.90
2021,08,07,16,58,18.80
2021,08,07,16,59,26.50
2021,08,07,17,00,20.10
2021,08,07,17,01,17.10
2021,08,07,17,02,28.00
2021,08,07,17,03,18.80
2021,08,07,17,04,15.80
2021,08,07,17,05,15.80
2021,08,07,17,06,19.70
2021,08,07,17,07,16.30
2021,08,07,17,08,17.00
2021,08,07,17,09,7.00
2021,08,07,17,10,13.50
2021,08,07,17,11,21.10
2021,08,07,17,12,16.30
2021,08,07,17,13,17.20
2021,08,07,17,14,12.00
2021,08,07,17,15,14.90
2021,08,07,17,16,21.50
2021,08,07,17,17,21.10
2021,08,07,17,18,17.80
2021,08,07,17,19,22.30
2021,08,07,17,20,8.60
2021,08,07,17,21,18.20
2021,08,07,17,22,20.70
2021,08,07,17,23,12.10
2021,08,07,17,24,16.70
2021,08,07,17,25,16.30
2021,08,07,17,26,17.50
2021,08,07,17,27,13.70
2021,08,07,17,28,15.20
2021,08,07,17,29,15.90
2021,08,07,17,30,19.20
2021,08,07,17,31,25.80
2021,08,07,17,32,14.60
2021,08,07,17,33,22.10
2021,08,07,17,34,13.00
2021,08,07,17,35,15.00
2021,08,07,17,36,14.70
2021,08,07,17,37,19.90
2021,08,07,17,38,13.00
2021,08,07,17,39,13.30
2021,08,07,17,40,17.20
2021,08,07,17,41,15.90
2021,08,07,17,42,12.10
2021,08,07,17,43,19.50
2021,08,07,17,44,13.40
2021,08,07,17,45,13.50
2021,08,07,17,46,11.30
2021,08,07,17,47,19.10
2021,08,07,17,48,17.50
2021,08,07,17,49,11.20
2021,08,07,17,50,21.40
2021,08,07,17,51,14.80
2021,08,07,17,52,15.00
2021,08,07,17,53,13.40
2021,08,07,17,54,19.70
2021,08,07,17,55,13.40
2021,08,07,17,56,22.90
2021,08,07,17,57,23.60
2021,08,07,17,58,14.60
2021,08,07,17,59,18.60
2021,08,07,18,00,9.30
2021,08,07,18,01,9.20
2021,08,07,18,02,20.80
2021,08,07,18,03,20.40
2021,08,07,18,04,19.20
2021,08,07,18,05,18.00
2021,08,07,18,06,13.10
2021,08,07,18,07,16.70
2021,08,07,18,08,22.40
2021,08,07,18,09,15.10
2021,08,07,18,10,15.40
2021,08,07,18,11,12.20
2021,08,07,18,12,14.50
2021,08,07,18,13,14.10
2021,08,07,18,14,17.80
2021,08,07,18,15,11.90
2021,08,07,18,16,17.90
2021,08,07,18,17,18.90
2021,08,07,18,18,12.40
2021,08,07,18,19,14.20
2021,08,07,18,20,15.00
2021,08,07,18,21,11.70
2021,08,07,18,22,15.40
2021,08,07,18,23,11.90
2021,08,07,18,24,22.20
2021,08,07,18,25,15.90
2021,08,07,18,26,22.40
2021,08,07,18,27,14.60
2021,08,07,18,28,20.90
2021,08,07,18,29,20.10
2021,08,07,18,30,14.20
2021,08,07,18,31,18.40
2021,08,07,18,32,12.00
2021,08,07,18,33,15.40
2021,08,07,18,34,10.50
2021,08,07,18,35,13.80
2021,08,07,18,36,11.20
2021,08,07,18,37,16.30
2021,08,07,18,38,18.80
2021,08,07,18,39,19.00
2021,08,07,18,40,10.40
2021,08,07,18,41,13.80
2021,08,07,18,42,19.20
2021,08,07,18,43,15.80
2021,08,07,18,44,12.30
2021,08,07,18,45,18.50
2021,08,07,18,46,14.40
2021,08,07,18,47,14.10
2021,08,07,18,48,14.60
2021,08,07,18,49,13.20
2021,08,07,18,50,21.00
2021,08,07,18,51,15.70
2021,08,07,18,52,13.40
2021,08,07,18,53,15.10
2021,08,07,18,54,12.40
2021,08,07,18,55,9.70
2021,08,07,18,56,8.90
2021,08,07,18,57,10.60
2021,08,07,18,58,18.30
2021,08,07,18,59,7.50
2021,08,07,19,00,11.20
2021,08,07,19,01,13.00
2021,08,07,19,02,14.30
2021,08,07,19,03,9.20
2021,08,07,19,04,15.90
2021,08,07,19,05,13.70
2021,08,07,19,06,9.10
2021,08,07,19,07,11.30
2021,08,07,19,08,14.70
2021,08,07,19,09,12.20
2021,08,07,19,10,12.50
2021,08,07,19,11,10.20
2021,08,07,19,12,13.00
2021,08,07,19,13,17.40
2021,08,07,19,14,9.80
2021,08,07,19,15,9.30
2021,08,07,19,16,14.20
2021,08,07,19,17,5.30
2021,08,07,19,18,9.60
2021,08,07,19,19,6.60
2021,08,07,19,20,7.90
2021,08,07,19,21,8.60
2021,08,07,19,22,12.10
2021,08,07,19,23,10.60
2021,08,07,19,24,10.20
2021,08,07,19,25,10.70
2021,08,07,19,26,14.50
2021,08,07,19,27,13.80
2021,08,07,19,28,14.80
2021,08,07,19,29,17.90
2021,08,07,19,30,17.50
2021,08,07,19,31,18.60
2021,08,07,19,32,15.80
2021,08,07,19,33,13.70
2021,08,07,19,34,8.90
2021,08,07,19,35,6.50
2021,08,07,19,36,11.20
2021,08,07,19,37,13.00
2021,08,07,19,38,11.50
2021,08,07,19,39,12.00
2021,08,07,19,40,13.00
2021,08,07,19,41,9.30
2021,08,07,19,42,17.00
2021,08,07,19,43,11.50
2021,08,07,19,44,14.40
2021,08,07,19,45,16.30
2021,08,07,19,46,16.60
2021,08,07,19,47,18.70
2021,08,07,19,48,18.30
2021,08,07,19,49,19.10
2021,08,07,19,50,12.70
2021,08,07,19,51,10.90
2021,08,07,19,52,13.10
2021,08,07,19,53,15.50
2021,08,07,19,54,15.50
2021,08,07,19,55,11.30
2021,08,07,19,56,9.70
2021,08,07,19,57,10.70
2021,08,07,19,58,18.20
2021,08,07,19,59,17.70
2021,08,07,20,00,16.50
2021,08,07,20,01,13.30
2021,08,07,20,02,16.80
2021,08,07,20,03,13.40
2021,08,07,20,04,12.00
2021,08,07,20,05,18.90
2021,08,07,20,06,21.30
2021,08,07,20,07,18.30
2021,08,07,20,08,26.60
2021,08,07,20,09,18.40
2021,08,07,20,10,22.00
2021,08,07,20,11,30.70
2021,08,07,20,12,19.30
2021,08,07,20,13,20.30
2021,08,07,20,14,24.50
2021,08,07,20,15,16.60
2021,08,07,20,16,14.80
2021,08,07,20,17,13.70
2021,08,07,20,18,15.90
2021,08,07,20,19,13.50
2021,08,07,20,20,18.50
2021,08,07,20,21,16.60
2021,08,07,20,22,18.90
2021,08,07,20,23,17.80
2021,08,07,20,24,14.50
2021,08,07,20,25,14.10
2021,08,07,20,26,12.40
2021,08,07,20,27,15.50
2021,08,07,20,28,12.80
2021,08,07,20,29,11.60
2021,08,07,20,30,16.60
2021,08,07,20,31,13.80
2021,08,07,20,32,14.40
2021,08,07,20,33,21.10
2021,08,07,20,34,14.90
2021,08,07,20,35,3.80
2021,08,07,20,36,8.00
2021,08,07,20,37,6.90
2021,08,07,20,38,9.90
2021,08,07,20,39,11.10
2021,08,07,20,40,13.00
2021,08,07,20,41,5.10
2021,08,07,20,42,10.50
2021,08,07,20,43,12.00
2021,08,07,20,44,10.30
2021,08,07,20,45,12.40
2021,08,07,20,46,4.60
2021,08,07,20,47,4.60
2021,08,07,20,48,21.30
2021,08,07,20,49,9.40
2021,08,07,20,50,6.20
2021,08,07,20,51,6.70
2021,08,07,20,52,5.60
2021,08,07,20,53,5.30
2021,08,07,20,54,6.10
2021,08,07,20,55,7.60
2021,08,07,20,56,8.70
2021,08,07,20,57,10.60
2021,08,07,20,58,14.60
2021,08,07,20,59,8.80
2021,08,07,21,00,5.80
2021,08,07,21,01,10.00
2021,08,07,21,02,10.80
2021,08,07,21,03,8.80
2021,08,07,21,04,10.40
2021,08,07,21,05,7.20
2021,08,07,21,06,3.20
2021,08,07,21,07,0.00
2021,08,07,21,08,2.70
2021,08,07,21,09,4.70
2021,08,07,21,10,1.00
2021,08,07,21,11,2.30
2021,08,07,21,12,0.40
2021,08,07,21,13,2.50
2021,08,07,21,14,1.00
2021,08,07,21,15,0.10
2021,08,07,21,16,0.00
2021,08,07,21,17,0.00
2021,08,07,21,18,0.00
2021,08,07,21,19,0.10
2021,08,07,21,20,0.00
2021,08,07,21,21,0.10
2021,08,07,21,22,0.80
2021,08,07,21,23,0.70
2021,08,07,21,24,5.60
2021,08,07,21,25,2.60
2021,08,07,21,26,3.40
2021,08,07,21,27,3.10
2021,08,07,21,28,4.70
2021,08,07,21,29,1.60
2021,08,07,21,30,1.30
2021,08,07,21,31,3.40
2021,08,07,21,32,10.40
2021,08,07,21,33,5.70
2021,08,07,21,34,3.80
2021,08,07,21,35,0.90
2021,08,07,21,36,5.20
2021,08,07,21,37,10.10
2021,08,07,21,38,5.20
2021,08,07,21,39,6.90
2021,08,07,21,40,12.70
2021,08,07,21,41,10.90
2021,08,07,21,42,13.00
2021,08,07,21,43,8.30
2021,08,07,21,44,10.50
2021,08,07,21,45,5.00
2021,08,07,21,46,6.00
2021,08,07,21,47,6.20
2021,08,07,21,48,10.30
2021,08,07,21,49,10.60
2021,08,07,21,50,9.80
2021,08,07,21,51,6.20
2021,08,07,21,52,8.20
2021,08,07,21,53,12.30
2021,08,07,21,54,4.00
2021,08,07,21,55,4.80
2021,08,07,21,56,9.20
2021,08,07,21,57,3.00
2021,08,07,21,58,5.70
2021,08,07,21,59,2.70
2021,08,07,22,00,6.40
2021,08,07,22,01,11.40
2021,08,07,22,02,6.50
2021,08,07,22,03,7.20
2021,08,07,22,04,18.00
2021,08,07,22,05,6.30
2021,08,07,22,06,11.50
2021,08,07,22,07,11.30
2021,08,07,22,08,8.40
2021,08,07,22,09,13.00
2021,08,07,22,10,10.20
2021,08,07,22,11,14.20
2021,08,07,22,12,12.10
2021,08,07,22,13,15.50
2021,08,07,22,14,11.40
2021,08,07,22,15,13.20
2021,08,07,22,16,14.20
2021,08,07,22,17,11.60
2021,08,07,22,18,13.00
2021,08,07,22,19,9.40
2021,08,07,22,20,4.00
2021,08,07,22,21,6.50
2021,08,07,22,22,3.30
2021,08,07,22,23,4.40
2021,08,07,22,24,3.80
2021,08,07,22,25,3.70
2021,08,07,22,26,5.50
2021,08,07,22,27,3.40
2021,08,07,22,28,8.70
2021,08,07,22,29,8.50
2021,08,07,22,30,3.20
2021,08,07,22,31,6.60
2021,08,07,22,32,7.50
2021,08,07,22,33,8.90
2021,08,07,22,34,6.50
2021,08,07,22,35,10.80
2021,08,07,22,36,12.20
2021,08,07,22,37,13.40
2021,08,07,22,38,9.00
2021,08,07,22,39,5.40
2021,08,07,22,40,9.30
2021,08,07,22,41,2.90
2021,08,07,22,42,13.50
2021,08,07,22,43,11.50
2021,08,07,22,44,8.20
2021,08,07,22,45,6.20
2021,08,07,22,46,12.00
2021,08,07,22,47,12.20
2021,08,07,22,48,13.00
2021,08,07,22,49,8.90
2021,08,07,22,50,10.80
2021,08,07,22,51,10.10
2021,08,07,22,52,7.00
2021,08,07,22,53,3.20
2021,08,07,22,54,0.70